Fort Leonard Wood, MO

12:53 PM CDT on April 26, 2017 (GMT -0500)
Waynesville Regional At Forney Field

Weather History for KTBN - March, 2012

Change the Weather History Date:

Saturday, March 31, 2012

  Actual Average Record
Temperature  
Mean Temperature 69 °F -  
Max Temperature 83 °F 61 °F 83 °F (2012)
Min Temperature 55 °F 44 °F 35 °F (2004)
Cooling Degree Days 4    
Growing Degree Days 19 (Base 50)    
Moisture  
Dew Point 56 °F    
Average Humidity 67    
Maximum Humidity 97    
Minimum Humidity 33    
Precipitation  
Precipitation 0.00 in - - ()
Sea Level Pressure  
Sea Level Pressure 29.80 in    
Wind  
Wind Speed 4 mph (SE)    
Max Wind Speed 9 mph    
Max Gust Speed -    
Visibility 10 miles    
Events      
Averages and records for this station are not official NWS values.
T = Trace of Precipitation, MM = Missing Value Source: NWS Daily Summary

Daily Weather History Graph

Daily Weather History Graph

Search for Another Location

Airport or City:

Trip Planner

Search our weather history database for the weather conditions in past years. The results will help you decide how hot, cold, wet, or windy it might be!

Date:

Astronomy

Mar. 31, 2012 Rise Set
Actual Time 6:54 AM CDT 7:31 PM CDT
Civil Twilight 6:28 AM CDT 7:57 PM CDT
Nautical Twilight 5:57 AM CDT 8:28 PM CDT
Astronomical Twilight 5:25 AM CDT 9:00 PM CDT
Moon 1:06 PM CDT (3/31) 2:44 AM CDT (3/31)
Length of Visible Light 13h 29m
Length of Day
12h 36m
First Quarter, 59% of the Moon is Illuminated
Mar 31
First Quarter
Apr 6
Full
Apr 13
Last Quarter
Apr 21
New
Apr 29
First Quarter

Hourly Weather History & Observations

Time (CDT) Temp. Heat Index Dew Point Humidity Pressure Visibility Wind Dir Wind Speed Gust Speed Precip Events Conditions
12:55 AM 58.3 °F - 56.5 °F 94% 29.81 in 10.0 mi Calm Calm - N/A   Scattered Clouds
1:55 AM 62.4 °F - 56.5 °F 81% 29.81 in 10.0 mi ENE 3.5 mph - N/A   Overcast
2:55 AM 61.2 °F - 56.7 °F 85% 29.81 in 10.0 mi NE 3.5 mph - N/A   Mostly Cloudy
3:55 AM 58.8 °F - 56.5 °F 92% 29.82 in 10.0 mi NE 3.5 mph - N/A   Mostly Cloudy
4:55 AM 57.9 °F - 56.5 °F 95% 29.81 in 10.0 mi ENE 4.6 mph - N/A   Clear
5:55 AM 57.2 °F - 55.9 °F 96% 29.82 in 10.0 mi East 6.9 mph - N/A   Clear
6:55 AM 55.9 °F - 55.2 °F 97% 29.83 in 10.0 mi ESE 4.6 mph - N/A   Clear
7:55 AM 57.7 °F - 56.3 °F 95% 29.85 in 10.0 mi SE 5.8 mph - N/A   Clear
8:55 AM 60.4 °F - 56.7 °F 87% 29.86 in 10.0 mi SE 4.6 mph - N/A   Partly Cloudy
9:55 AM 67.1 °F - 57.4 °F 71% 29.85 in 10.0 mi SSE 4.6 mph - N/A   Clear
10:55 AM 73.9 °F - 57.7 °F 57% 29.84 in 10.0 mi Variable 4.6 mph - N/A   Clear
11:55 AM 76.5 °F - 58.8 °F 54% 29.83 in 10.0 mi Variable 4.6 mph - N/A   Clear
12:55 PM 80.1 °F 81.1 °F 61.0 °F 52% 29.82 in 10.0 mi WNW 9.2 mph - N/A   Partly Cloudy
1:55 PM 80.6 °F 80.5 °F 55.8 °F 42% 29.80 in 10.0 mi West 8.1 mph - N/A   Mostly Cloudy
2:55 PM 82.4 °F - 52.3 °F 35% 29.78 in 10.0 mi Calm Calm - N/A   Clear
3:55 PM 83.3 °F 82.1 °F 54.0 °F 36% 29.77 in 10.0 mi WSW 5.8 mph - N/A   Partly Cloudy
4:55 PM 81.5 °F - 52.0 °F 36% 29.75 in 10.0 mi Variable 3.5 mph - N/A   Partly Cloudy
5:55 PM 82.9 °F - 51.1 °F 33% 29.75 in 10.0 mi Variable 5.8 mph - N/A   Clear
6:55 PM 80.6 °F - 52.9 °F 38% 29.76 in 10.0 mi Variable 3.5 mph - N/A   Clear
7:55 PM 74.7 °F - 54.9 °F 50% 29.77 in 10.0 mi Calm Calm - N/A   Clear
8:55 PM 71.4 °F - 56.1 °F 58% 29.78 in 10.0 mi South 4.6 mph - N/A   Clear
9:55 PM 70.0 °F - 56.5 °F 62% 29.77 in 10.0 mi South 4.6 mph - N/A   Clear
10:55 PM 68.4 °F - 57.4 °F 68% 29.76 in 10.0 mi South 4.6 mph - N/A   Clear
11:46 PM 64.4 °F - 57.2 °F 77% 29.75 in 6.0 mi SSE 4.6 mph - N/A   Light Drizzle
11:53 PM 64.4 °F - 57.2 °F 77% 29.75 in 7.0 mi South 4.6 mph - N/A   Clear
11:55 PM 63.7 °F - 57.2 °F 79% 29.75 in 7.0 mi South 4.6 mph - 0.00 in   Clear